Helicity
86 65 67 81 98 90 24 24 47 39 55 85 98 94 100 112 115 144 134 158 177 215 207 129 99 95 89 93 104 91 66 45 64 55 103 83 66 83 75 48 51 61 81 161 151
75 61 53 79 126 134 50 39 42 43 57 70 69 86 118 137 105 126 151 178 177 194 172 94 85 86 96 93 94 98 74 102 120 123 110 86 74 89 50 30 31 42 84 105 103
49 42 42 57 69 65 101 65 61 52 59 68 85 111 120 177 158 160 168 198 184 162 117 117 82 96 93 95 95 93 112 84 95 106 94 79 53 53 43 31 27 40 83 168 101
22 7 4 -4 93 122 133 76 48 68 68 77 91 123 139 230 184 163 204 204 177 124 117 93 82 88 87 76 82 76 96 104 87 83 75 67 56 32 24 20 107 96 149 145 87
18 -1 -35 -109 33 85 44 42 51 90 81 82 97 144 177 158 181 193 200 153 117 112 111 98 92 98 90 89 80 95 82 77 72 56 45 35 21 21 -7 32 52 77 80 62 76
44 -5 -108 14 145 61 17 51 77 97 87 78 109 146 163 157 199 188 165 125 138 109 107 114 113 103 97 97 105 81 77 73 52 47 34 39 32 72 61 106 108 112 76 77 85
50 -31 -7 23 50 -18 68 70 95 82 91 104 113 56 138 157 192 171 130 135 124 99 88 95 94 85 74 84 69 68 60 46 44 54 54 39 16 62 21 73 67 53 53 64 71
-19 59 -7 65 80 85 88 84 63 79 97 93 108 92 161 164 146 136 128 98 92 89 78 76 93 80 90 59 63 57 48 57 72 50 72 59 47 62 74 52 53 59 65 67 60
98 56 70 82 84 96 95 76 75 96 112 107 126 112 138 125 122 142 100 96 84 68 58 56 65 75 72 64 59 41 59 50 39 69 65 45 47 70 60 52 36 42 45 44 37
93 69 70 74 72 67 76 82 97 94 129 114 74 89 75 102 121 134 87 87 77 66 57 58 60 75 76 64 113 96 63 42 34 91 53 31 38 22 46 48 25 25 22 29 38
79 87 37 52 55 104 99 112 155 104 107 95 92 77 78 84 92 77 83 89 67 59 78 77 102 108 89 100 87 76 54 44 66 102 49 41 26 23 46 21 11 13 29 40 37
88 99 94 38 70 81 77 71 64 47 100 115 90 84 83 93 73 90 127 81 72 70 64 62 90 72 68 72 69 68 54 78 51 58 34 32 33 39 22 41 46 55 47 37 17
92 83 97 69 68 66 57 65 61 86 94 130 116 111 110 122 83 118 105 68 84 76 72 64 72 62 63 65 69 69 90 92 54 35 13 22 24 52 57 71 60 36 30 7 6
77 75 68 38 69 67 72 56 76 60 76 92 93 75 82 69 54 86 80 67 50 50 78 74 66 63 60 70 71 67 65 44 34 45 58 35 59 17 62 56 41 29 15 5 19
52 59 63 50 40 51 50 58 45 53 91 59 65 69 83 62 50 66 59 60 55 53 43 63 56 57 58 66 56 79 32 17 16 4 5 40 17 32 39 34 21 23 33 24 26
21 20 23 27 22 32 36 31 32 69 63 50 58 64 48 58 53 52 55 53 48 59 84 68 48 50 67 42 32 24 -0 7 17 19 20 42 19 15 25 16 21 57 33 26 40
-3 -0 -29 1 18 25 23 24 62 56 41 48 58 73 64 61 55 68 65 67 72 78 69 40 46 36 32 14 18 17 25 17 22 27 42 35 10 4 18 -1 52 63 63 66 69
39 36 -2 -16 11 33 37 41 35 51 59 62 72 70 70 73 59 58 50 50 53 48 40 26 8 22 35 39 31 22 16 30 27 34 20 52 -18 38 20 39 65 69 75 69 73
48 46 32 32 36 38 50 24 29 38 37 36 45 42 44 36 36 28 34 32 30 41 24 22 27 29 35 25 13 24 -10 39 10 38 -2 5 -7 16 45 82 85 91 100 88 48
32 35 34 49 33 40 25 26 30 34 36 35 33 32 24 22 4 2 8 26 25 32 33 10 -8 5 17 -12 16 28 47 8 37 -19 -9 2 -0 18 57 127 142 177 125 55 29
17 19 22 22 26 35 23 14 18 27 54 46 29 18 23 16 21 7 6 -6 2 -7 17 -6 -9 -2 5 14 35 51 36 28 -0 -6 -23 -20 -27 87 65 115 235 270 120 -13 -34
-10 2 6 -0 9 15 15 19 28 15 20 20 26 28 26 16 10 8 3 10 21 10 1 26 6 -19 -24 74 70 47 -9 -6 -25 -46 -4 -14 -4 41 77 137 189 185 44 29 72
-32 -13 -7 -3 -12 -17 -9 -3 8 1 1 7 7 20 15 7 -7 -3 -4 28 29 33 28 41 -44 -35 -50 -34 11 -13 4 2 -6 -8 22 -60 -98 89 92 72 55 42 90 141 102
-43 -0 5 15 32 -7 -41 -33 -29 3 -6 4 -4 2 -15 -24 -9 -28 -37 30 44 44 63 37 -37 -23 -24 -28 -17 -18 6 42 75 14 -58 93 -20 49 -38 -21 -4 130 141 144 96
-42 14 6 32 42 57 51 49 20 -49 32 20 -37 -43 -44 -52 -37 -43 13 35 53 68 68 55 -61 -58 -35 -31 -36 -1 15 33 129 124 99 100 125 -62 -13 8 153 141 139 114 75
-47 -17 9 30 26 36 52 61 61 64 56 57 54 61 46 46 58 55 56 48 50 61 66 86 60 54 26 -64 -63 -48 -7 5 13 11 60 61 5 71 160 137 138 132 107 74 47
-6 10 6 40 41 35 54 60 69 66 56 63 60 57 52 44 50 45 46 47 75 74 70 98 92 68 50 69 42 -9 71 61 65 76 47 49 80 125 102 134 117 105 64 4 -29
Wind_Speed
16 14 12 14 25 36 41 33 34 39 36 38 39 35 34 35 33 33 34 38 39 40 38 33 29 25 26 30 31 33 38 42 40 40 41 35 38 33 37 38 32 31 35 35 32
32 14 11 12 22 35 37 35 31 39 38 37 33 31 34 37 30 27 31 35 36 36 33 30 27 26 30 31 34 37 42 39 39 40 41 38 39 41 40 37 36 33 30 33 37
29 21 28 24 24 22 33 34 29 39 39 36 32 30 32 35 38 34 32 34 34 33 32 32 26 28 32 32 35 38 43 36 38 39 41 40 40 34 38 42 35 39 43 29 39
28 15 21 32 34 25 34 34 31 37 41 37 33 31 33 36 51 33 33 33 31 30 30 28 29 31 31 36 34 39 37 38 36 37 39 39 43 38 33 36 41 45 41 43 47
27 34 29 39 46 53 51 37 33 39 41 37 34 32 31 30 31 31 31 29 27 27 28 29 30 31 33 32 33 37 33 34 36 39 41 45 45 49 54 43 44 43 40 43 41
46 41 33 9 70 61 38 43 37 41 40 37 34 32 32 32 28 27 26 23 23 26 26 28 28 28 29 33 38 35 33 36 38 41 45 52 55 51 46 41 41 43 41 40 32
55 69 74 41 47 17 46 34 36 40 36 33 32 18 7 24 24 24 20 19 20 23 23 25 25 29 29 32 32 32 39 40 41 45 48 56 61 40 44 44 45 42 41 36 34
42 36 56 47 48 40 38 32 34 38 37 32 33 23 21 22 23 19 21 16 18 19 16 21 23 24 31 27 33 37 41 47 39 47 45 50 62 48 40 45 48 47 42 39 37
24 24 28 34 33 35 34 32 31 34 33 33 31 28 22 26 22 22 22 23 23 21 21 22 27 30 30 36 40 42 52 50 52 44 53 49 67 54 44 54 54 50 46 42 40
17 15 23 27 28 30 29 28 29 27 32 29 23 20 22 25 25 28 26 25 26 30 28 31 31 31 35 38 45 43 53 54 59 52 60 66 67 69 56 53 52 50 44 36 30
19 14 13 25 28 32 30 30 34 28 4 16 20 11 18 23 24 25 29 29 29 29 29 31 27 30 33 36 40 44 53 61 59 56 69 62 74 68 60 52 46 38 30 27 26
9 10 17 15 26 23 28 29 28 28 14 9 10 11 19 25 25 23 27 28 28 27 28 27 29 30 34 37 40 45 55 59 56 51 66 69 79 70 47 33 28 27 26 26 23
7 11 18 27 27 17 21 25 27 28 30 18 17 19 23 23 23 26 27 26 25 29 31 31 28 31 35 38 44 45 53 55 57 70 52 66 60 38 35 25 23 24 26 26 25
5 10 12 31 29 28 26 26 27 28 31 28 27 24 27 25 23 26 27 29 30 28 28 30 31 34 38 41 47 49 46 53 60 63 58 55 53 51 32 25 23 23 23 24 27
7 12 11 17 27 27 28 28 28 29 37 31 28 28 26 26 26 28 28 29 30 29 32 34 33 37 41 41 44 46 48 50 51 54 53 38 43 36 33 23 17 20 23 26 33
13 13 24 24 19 26 30 30 31 32 38 32 32 31 27 25 28 29 29 28 28 32 32 32 31 35 37 37 39 42 44 42 39 39 41 35 37 37 36 30 19 20 25 32 37
19 11 19 25 28 30 32 31 33 37 31 31 29 28 27 29 28 30 29 29 34 35 36 32 33 32 33 36 33 38 43 43 39 39 40 35 44 12 28 26 23 22 31 38 41
21 23 17 23 28 31 32 29 38 33 31 26 26 24 27 29 28 29 28 29 30 32 33 33 33 28 29 31 34 38 36 36 39 44 47 38 33 30 30 28 24 30 36 42 45
26 28 24 16 24 31 32 27 28 26 21 17 20 24 24 25 27 27 28 28 28 30 29 31 30 31 35 37 37 32 33 35 28 28 31 28 38 32 36 28 23 31 39 48 58
28 30 24 17 25 31 30 25 25 24 21 21 23 25 23 23 24 25 25 27 26 31 33 35 38 37 34 37 34 34 34 21 25 34 31 25 39 30 38 32 25 36 52 61 66
26 30 22 20 27 32 35 34 35 33 30 32 29 26 29 29 34 36 36 34 36 35 34 36 38 34 37 23 19 25 18 19 17 24 30 31 33 39 34 29 28 50 59 63 64
23 27 22 26 29 29 34 35 36 39 34 33 33 32 35 35 36 37 38 37 32 35 39 36 39 37 38 29 34 40 35 31 28 28 31 37 37 34 32 27 45 64 64 64 65
29 27 29 29 32 33 34 37 34 38 37 35 34 33 34 36 36 39 39 35 30 27 37 29 33 33 28 22 16 27 26 28 28 28 37 38 40 29 22 18 58 65 58 68 69
40 37 36 32 30 28 36 37 37 36 37 36 36 36 37 40 41 39 41 36 30 29 34 33 39 37 37 44 36 21 14 17 16 32 44 32 41 14 31 62 68 62 63 70 70
44 38 38 38 37 34 36 29 12 39 32 34 42 37 42 41 44 45 44 41 29 27 30 41 38 45 51 56 50 46 44 33 25 29 16 28 37 60 75 76 53 53 67 76 75
46 44 39 36 37 38 33 31 32 33 30 36 36 34 30 39 41 42 39 36 44 27 26 32 48 57 67 54 67 41 31 34 39 41 42 44 53 76 47 57 57 64 75 76 80
46 41 40 38 38 37 35 34 33 33 31 35 35 36 38 44 47 48 44 42 43 36 32 41 47 55 54 51 73 76 48 19 23 31 29 31 45 52 61 60 65 74 75 76 85
Wind_Direction
190 209 195 214 223 219 208 211 212 213 214 211 213 208 204 210 220 232 234 252 254 257 256 254 261 269 276 277 288 293 286 287 296 301 308 322 320 332 332 325 336 342 338 342 344
184 180 181 199 212 215 205 206 210 204 203 204 201 200 208 216 218 230 256 263 259 258 251 251 257 268 276 281 287 287 286 294 305 310 315 321 321 325 326 327 326 331 334 337 337
173 177 191 203 210 220 196 199 199 194 195 195 199 206 211 225 221 237 269 264 261 257 257 260 264 272 274 283 287 290 288 302 309 315 319 321 324 332 329 324 327 325 327 340 336
172 186 199 192 191 208 195 188 186 187 191 195 202 211 222 230 219 249 267 263 261 259 259 258 264 272 277 280 291 291 301 307 315 321 322 323 324 327 323 321 327 326 327 325 326
168 174 180 179 176 170 177 179 181 185 190 197 205 218 227 224 230 259 265 264 262 262 259 262 267 276 279 290 296 299 306 315 319 320 320 319 317 314 311 318 319 322 325 324 326
145 157 160 166 133 156 174 174 181 184 193 200 209 218 226 216 251 264 268 270 271 265 267 274 280 292 290 294 295 306 309 313 317 318 315 311 309 318 322 329 327 327 326 327 330
136 113 107 152 160 160 166 176 183 186 192 201 200 192 180 226 256 264 270 276 288 277 274 287 292 294 297 296 305 309 305 309 313 312 312 313 309 316 319 323 325 327 327 330 329
135 141 106 149 155 163 169 174 179 186 185 197 204 221 223 245 253 273 268 281 299 297 299 299 311 312 303 313 308 309 308 302 314 315 319 320 309 323 327 324 325 325 326 326 326
121 129 144 153 161 165 170 171 177 187 198 205 208 215 221 240 252 273 281 270 281 299 314 324 304 295 301 299 297 297 293 300 306 321 318 319 310 322 324 321 319 320 322 322 324
126 144 155 161 167 171 173 179 185 196 202 206 217 222 235 238 254 264 277 284 277 274 280 282 290 290 291 292 292 301 300 305 306 318 317 312 311 312 317 318 318 321 324 330 339
143 165 168 176 179 186 189 195 191 194 213 217 227 219 235 249 257 269 263 262 266 274 280 283 293 295 301 308 310 311 307 306 313 321 316 318 314 315 317 317 321 330 339 345 353
180 195 198 215 208 210 207 202 204 198 185 234 238 249 248 251 256 283 279 267 274 280 292 299 298 307 309 315 317 318 313 313 320 327 322 320 314 315 322 329 338 346 351 354 4
208 222 219 202 201 214 200 192 205 214 205 230 249 252 254 264 268 276 283 276 281 281 286 293 310 310 316 320 319 321 319 321 321 318 326 322 324 342 345 348 351 352 351 352 356
225 250 264 196 196 199 204 215 220 229 207 221 234 257 261 265 275 293 293 280 280 285 298 306 307 313 316 317 317 318 326 324 320 322 322 335 321 330 349 348 351 358 360 357 348
196 199 260 232 210 217 220 232 238 233 209 235 241 257 265 264 271 292 300 295 285 293 299 307 312 312 313 319 323 320 329 328 329 327 329 342 331 345 351 352 6 5 353 349 325
177 209 195 223 253 241 242 246 245 236 218 238 249 251 261 281 283 289 297 312 308 304 315 317 325 322 324 331 333 333 336 338 344 344 334 350 349 347 339 329 360 2 352 333 334
168 228 199 215 246 237 245 257 246 236 256 255 263 270 282 284 295 298 303 309 300 302 306 322 326 335 338 334 346 342 339 335 337 339 338 341 318 211 263 16 9 17 342 335 340
162 166 188 197 210 232 243 262 243 264 262 277 280 294 293 298 310 312 319 317 328 325 323 321 323 344 348 341 335 328 332 343 338 327 288 331 203 324 357 349 354 344 340 338 339
156 151 163 227 220 209 228 272 272 277 289 297 302 300 307 317 318 327 329 331 336 333 332 329 328 319 300 298 288 319 259 336 283 24 229 193 288 341 338 339 342 346 343 331 325
148 154 156 217 191 196 208 238 256 261 276 289 307 304 318 324 330 333 332 319 313 286 273 267 234 271 290 261 300 286 342 308 44 253 230 231 304 343 332 340 355 338 318 318 320
152 157 172 210 185 169 166 182 194 213 230 238 258 271 261 251 240 230 232 242 235 236 262 251 235 268 280 134 38 8 64 110 230 189 212 224 224 337 341 342 345 325 326 325 327
189 168 218 204 176 180 167 175 188 187 205 210 214 221 218 226 221 223 218 240 279 273 259 292 254 208 218 338 326 304 203 186 198 200 205 233 238 357 355 351 320 308 314 321 326
280 249 255 241 172 173 181 177 202 190 202 214 223 236 240 238 213 234 247 291 314 335 299 335 194 207 189 160 120 183 179 187 199 208 221 227 241 3 42 48 293 305 330 322 324
328 310 306 313 302 225 175 183 187 237 235 246 241 255 242 233 257 231 229 306 328 331 320 313 214 204 214 245 261 200 186 190 189 216 235 217 229 264 254 274 284 324 317 316 319
329 340 327 312 310 311 292 316 308 201 292 293 236 194 226 222 244 241 282 304 340 340 334 306 221 232 239 246 240 236 233 225 228 231 250 312 324 254 276 282 327 330 319 313 314
335 327 327 329 319 312 320 320 314 315 319 308 308 316 326 310 307 313 319 326 314 340 336 330 315 307 300 250 264 241 241 233 233 235 235 240 247 296 325 322 324 321 318 319 319
344 343 326 324 324 321 318 317 318 317 322 317 317 318 315 307 307 309 313 313 314 320 321 318 316 314 315 321 301 283 318 312 310 319 312 298 316 316 316 320 319 318 319 320 318